| time (UTC) | temp F | wind direction | speed MPH | gust MPH | rain 1hr in | rain 24hr in | rain mn in | humidity % | barometer mb |
| 20260510001547 | 77 | 167 | 0.0 | 0.0 | 0.00 | 0.00 | 0.00 | 47 | 1009.2 |
| 20260510000044 | 78 | 162 | 0.0 | 0.0 | 0.00 | 0.00 | 0.00 | 52 | 1009.0 |
| 20260509234542 | 77 | 184 | 0.0 | 0.0 | 0.00 | 0.00 | 0.00 | 50 | 1009.0 |
| 20260509233037 | 77 | 161 | 0.0 | 0.0 | 0.00 | 0.00 | 0.00 | 48 | 1008.8 |
| 20260509231532 | 76 | 155 | 0.0 | 0.0 | 0.00 | 0.00 | 0.00 | 45 | 1009.0 |
| 20260509230025 | 76 | 208 | 0.0 | 0.0 | 0.00 | 0.00 | 0.00 | 49 | 1008.8 |
| 20260509224520 | 77 | 214 | 0.0 | 0.0 | 0.00 | 0.00 | 0.00 | 53 | 1008.9 |
| 20260509223016 | 77 | 214 | 0.0 | 0.0 | 0.00 | 0.00 | 0.00 | 56 | 1008.7 |
| 20260509221512 | 77 | 144 | 0.0 | 0.0 | 0.00 | 0.00 | 0.00 | 55 | 1008.7 |
| 20260509220020 | 77 | 124 | 0.0 | 0.0 | 0.00 | 0.00 | 0.00 | 53 | 1008.5 |
| 20260509214504 | 77 | 2 | 0.0 | 0.0 | 0.00 | 0.00 | 0.00 | 59 | 1008.4 |
| 20260509213136 | 77 | 337 | 0.0 | 0.0 | 0.00 | 0.00 | 0.00 | 58 | 1008.3 |
| 20260509211555 | 77 | 337 | 0.0 | 0.0 | 0.00 | 0.00 | 0.00 | 60 | 1008.5 |
| 20260509204548 | 77 | 326 | 0.0 | 0.0 | 0.00 | 0.00 | 0.00 | 60 | 1008.6 |
| 20260509203044 | 77 | 269 | 0.0 | 0.0 | 0.00 | 0.00 | 0.00 | 60 | 1008.8 |
| 20260509201539 | 77 | 210 | 0.0 | 0.0 | 0.00 | 0.00 | 0.00 | 60 | 1009.0 |
| 20260509200035 | 78 | 266 | 0.0 | 0.0 | 0.00 | 0.00 | 0.00 | 60 | 1009.0 |
| 20260509194532 | 77 | 233 | 0.0 | 0.0 | 0.00 | 0.00 | 0.00 | 59 | 1009.1 |
| 20260509193027 | 77 | 285 | 0.0 | 0.0 | 0.00 | 0.00 | 0.00 | 59 | 1009.1 |
| 20260509191523 | 77 | 124 | 0.0 | 0.0 | 0.00 | 0.00 | 0.00 | 54 | 1009.3 |
| 20260509190019 | 76 | 287 | 0.0 | 0.0 | 0.00 | 0.00 | 0.00 | 51 | 1009.4 |
| 20260509184513 | 75 | 1 | 0.0 | 0.0 | 0.00 | 0.00 | 0.00 | 46 | 1009.5 |
| 20260509183011 | 75 | 341 | 0.0 | 2.0 | 0.00 | 0.00 | 0.00 | 47 | 1009.9 |
| 20260509181506 | 74 | 158 | 0.0 | 0.0 | 0.00 | 0.00 | 0.00 | 40 | 1010.1 |
| 20260509174555 | 73 | 124 | 0.0 | 7.0 | 0.00 | 0.00 | 0.00 | 26 | 1010.6 |
| 20260509173051 | 72 | 101 | 0.0 | 9.0 | 0.00 | 0.00 | 0.00 | 19 | 1010.6 |
| 20260509171549 | 73 | 139 | 2.0 | 8.0 | 0.00 | 0.00 | 0.00 | 11 | 1010.8 |
| 20260509170048 | 72 | 181 | 0.0 | 0.0 | 0.00 | 0.00 | 0.00 | 16 | 1010.8 |
| 20260509164542 | 71 | 264 | 0.0 | 10.0 | 0.00 | 0.00 | 0.00 | 2 | 1010.7 |
| 20260509163034 | 70 | 146 | 0.0 | 0.0 | 0.00 | 0.00 | 0.00 | 1 | 1010.7 |
| 20260509161533 | 69 | 189 | 0.0 | 0.0 | 0.00 | 0.00 | 0.00 | 1 | 1010.5 |
| 20260509160031 | 68 | 265 | 0.0 | 0.0 | 0.00 | 0.00 | 0.00 | 1 | 1010.6 |
| 20260509154518 | 68 | 245 | 0.0 | 0.0 | 0.00 | 0.00 | 0.00 | 1 | 1010.9 |
| 20260509153014 | 68 | 263 | 0.0 | 0.0 | 0.00 | 0.00 | 0.00 | 1 | 1010.8 |
| 20260509151509 | 68 | 270 | 0.0 | 0.0 | 0.00 | 0.00 | 0.00 | 1 | 1010.6 |
| 20260509150006 | 67 | 241 | 0.0 | 0.0 | 0.00 | 0.00 | 0.00 | 1 | 1010.6 |
| 20260509144502 | 66 | 116 | 0.0 | 0.0 | 0.00 | 0.01 | 0.00 | 1 | 1010.4 |
| 20260509143057 | 65 | 149 | 0.0 | 4.0 | 0.00 | 0.01 | 0.00 | 1 | 1010.4 |
| 20260509141553 | 64 | 221 | 0.0 | 0.0 | 0.00 | 0.01 | 0.00 | 1 | 1010.4 |
| 20260509140059 | 64 | 211 | 0.0 | 0.0 | 0.00 | 0.01 | 0.00 | 1 | 1010.6 |
| 20260509134545 | 63 | 243 | 0.0 | 1.0 | 0.00 | 0.01 | 0.00 | 1 | 1010.5 |
| 20260509133040 | 63 | 174 | 0.0 | 0.0 | 0.00 | 0.01 | 0.00 | 1 | 1010.3 |
| 20260509131539 | 63 | 113 | 0.0 | 0.0 | 0.00 | 0.01 | 0.00 | 1 | 1009.9 |
| 20260509130033 | 62 | 113 | 0.0 | 0.0 | 0.00 | 0.01 | 0.00 | 1 | 1009.6 |
| 20260509124532 | 62 | 113 | 0.0 | 0.0 | 0.00 | 0.01 | 0.00 | 1 | 1009.5 |
| 20260509123033 | 61 | 113 | 0.0 | 0.0 | 0.00 | 0.01 | 0.00 | 1 | 1009.3 |
| 20260509121527 | 61 | 113 | 0.0 | 0.0 | 0.00 | 0.01 | 0.00 | 1 | 1009.6 |
| 20260509120025 | 61 | 103 | 0.0 | 0.0 | 0.00 | 0.01 | 0.00 | 1 | 1009.7 |
| 20260509114519 | 61 | 103 | 0.0 | 0.0 | 0.00 | 0.01 | 0.00 | 1 | 1009.4 |
| 20260509113017 | 61 | 132 | 0.0 | 0.0 | 0.00 | 0.01 | 0.00 | 1 | 1009.4 |
| 20260509111510 | 61 | 121 | 0.0 | 0.0 | 0.00 | 0.01 | 0.00 | 1 | 1009.2 |
| 20260509110005 | 61 | 138 | 0.0 | 0.0 | 0.00 | 0.01 | 0.00 | 1 | 1009.2 |
| 20260509104501 | 61 | 138 | 0.0 | 0.0 | 0.00 | 0.01 | 0.00 | 1 | 1009.2 |
| 20260509103102 | 61 | 138 | 0.0 | 0.0 | 0.00 | 0.01 | 0.00 | 1 | 1008.9 |
| 20260509101558 | 60 | 77 | 0.0 | 0.0 | 0.00 | 0.01 | 0.00 | 1 | 1008.9 |
| 20260509100051 | 60 | 77 | 0.0 | 0.0 | 0.00 | 0.01 | 0.00 | 1 | 1008.4 |
| 20260509094543 | 60 | 77 | 0.0 | 0.0 | 0.00 | 0.01 | 0.00 | 1 | 1008.0 |
| 20260509093040 | 60 | 131 | 0.0 | 0.0 | 0.00 | 0.01 | 0.00 | 1 | 1007.9 |
| 20260509091536 | 60 | 128 | 0.0 | 0.0 | 0.00 | 0.01 | 0.00 | 1 | 1007.8 |
| 20260509090030 | 60 | 309 | 0.0 | 0.0 | 0.00 | 0.01 | 0.00 | 1 | 1008.2 |
| 20260509084529 | 60 | 309 | 0.0 | 0.0 | 0.00 | 0.01 | 0.00 | 1 | 1008.3 |
| 20260509083020 | 60 | 309 | 0.0 | 0.0 | 0.00 | 0.01 | 0.00 | 1 | 1008.4 |
| 20260509081517 | 61 | 309 | 0.0 | 0.0 | 0.00 | 0.01 | 0.00 | 1 | 1008.3 |
| 20260509080013 | 61 | 309 | 0.0 | 0.0 | 0.00 | 0.01 | 0.00 | 1 | 1008.5 |
| 20260509074507 | 62 | 309 | 0.0 | 0.0 | 0.00 | 0.01 | 0.00 | 1 | 1008.5 |
| 20260509073011 | 62 | 310 | 0.0 | 0.0 | 0.00 | 0.01 | 0.00 | 1 | 1008.9 |
| 20260509071559 | 62 | 310 | 0.0 | 0.0 | 0.00 | 0.01 | 0.00 | 1 | 1009.0 |
| 20260509070059 | 62 | 310 | 0.0 | 0.0 | 0.00 | 0.01 | 0.00 | 1 | 1009.5 |
| 20260509064550 | 62 | 310 | 0.0 | 0.0 | 0.00 | 0.01 | 0.00 | 1 | 1009.2 |
| 20260509063046 | 62 | 77 | 0.0 | 0.0 | 0.00 | 0.01 | 0.00 | 1 | 1008.9 |
| 20260509061541 | 62 | 176 | 0.0 | 0.0 | 0.00 | 0.01 | 0.00 | 1 | 1010.0 |
| 20260509060046 | 62 | 251 | 0.0 | 0.0 | 0.00 | 0.01 | 0.00 | 1 | 1010.1 |
| 20260509054532 | 62 | 183 | 0.0 | 0.0 | 0.00 | 0.01 | 0.00 | 1 | 1010.0 |
| 20260509053032 | 62 | 124 | 0.0 | 0.0 | 0.00 | 0.01 | 0.00 | 1 | 1010.0 |
| 20260509051522 | 62 | 123 | 0.0 | 0.0 | 0.00 | 0.01 | 0.00 | 1 | 1009.6 |
| 20260509050018 | 62 | 124 | 0.0 | 0.0 | 0.00 | 0.01 | 0.00 | 1 | 1009.3 |
| 20260509044516 | 62 | 88 | 0.0 | 0.0 | 0.00 | 0.01 | 0.01 | 1 | 1009.3 |
| 20260509043015 | 61 | 118 | 0.0 | 0.0 | 0.00 | 0.01 | 0.01 | 1 | 1009.5 |
| 20260509041505 | 61 | 118 | 0.0 | 0.0 | 0.00 | 0.01 | 0.01 | 1 | 1010.1 |
| 20260509040001 | 61 | 118 | 0.0 | 0.0 | 0.00 | 0.01 | 0.01 | 1 | 1010.1 |
| 20260509034601 | 61 | 118 | 0.0 | 0.0 | 0.00 | 0.01 | 0.01 | 1 | 1010.1 |
| 20260509033053 | 60 | 118 | 0.0 | 0.0 | 0.00 | 0.01 | 0.01 | 1 | 1010.0 |
| 20260509031548 | 60 | 118 | 0.0 | 0.0 | 0.00 | 0.01 | 0.01 | 1 | 1009.9 |
| 20260509030047 | 59 | 118 | 0.0 | 0.0 | 0.00 | 0.01 | 0.01 | 1 | 1009.7 |
| 20260509024539 | 59 | 118 | 0.0 | 0.0 | 0.00 | 0.01 | 0.01 | 1 | 1009.7 |
| 20260509023034 | 59 | 118 | 0.0 | 0.0 | 0.00 | 0.01 | 0.01 | 1 | 1009.6 |
| 20260509021535 | 59 | 118 | 0.0 | 0.0 | 0.00 | 0.01 | 0.01 | 1 | 1009.6 |
| 20260509020026 | 59 | 155 | 0.0 | 0.0 | 0.00 | 0.01 | 0.01 | 1 | 1009.8 |
| 20260509014521 | 61 | 155 | 0.0 | 0.0 | 0.00 | 0.01 | 0.01 | 4 | 1009.9 |
| 20260509013019 | 62 | 155 | 0.0 | 0.0 | 0.00 | 0.01 | 0.01 | 16 | 1009.9 |
| 20260509011514 | 63 | 155 | 0.0 | 0.0 | 0.00 | 0.01 | 0.01 | 20 | 1009.6 |
| 20260509010016 | 64 | 142 | 0.0 | 0.0 | 0.00 | 0.01 | 0.01 | 31 | 1009.7 |
| 20260509004505 | 65 | 113 | 0.0 | 0.0 | 0.00 | 0.01 | 0.01 | 42 | 1009.8 |
| 20260509003100 | 66 | 219 | 0.0 | 0.0 | 0.00 | 0.01 | 0.01 | 47 | 1010.1 |